Current Conditions for Foresthill, CA. Sunny, Dry   
Visibility: 10 miles
Space WX Alerts: ALERT:  Geomagnetic K-index of 4 ( Latest Alert ) - Issue Time: 2018 Jun 23 1040 UTC

  Summary / Temperature 

Current Temperature
86.5°F
30.3°C
(24/hr Ago)
86.3°F
(Apparent temp)
86.1°F
Warm
Heat Index
84.1°F 

89.0°F/ 31.7°C
Noticeable discomfort

 Temp Rate:

 24/hr Difference:

 Avg Running Temp:

 Todays High:

 Todays Low:

 Y-days High:

 Y-days Low:

 Todays HeatIdx:

 Y-days HeatIdx:

 Evapotranspiration:

+1.7°F/hr 

+0.2°F

85.3°F

86.6°F 2:14pm

65.8°F 6:24am

87.2°F 4:23pm

62.5°F 5:56am

84.6°F 2:21pm

84.3°F 4:27pm

0.140 in

115' Above Ground

 Temperature:

 6'AGL VRS 115'AGL:

 Avg Running Temp:

 Humidity:

 Todays High:

 Todays Low:

 Y-days High:

 Y-days Low:

86.0°F 

-0.5°F

85.4°F

30% 

86.0°F 1:08pm

70.0°F 6:15am

88.0°F 3:53pm

66.0°F 4:31am

Temp & Humidity Graphs

  Wind 

Wind Speed

 3.0 mph

Gusting to

 7.0 mph

Wind from WNW

293°  WNW

Light air

 Avg speed:

 Wind Run:

 Peak Gust:

  1.0 mph 

16.0 miles

  10.0 mph 11:57am

  Almanac  

Moon age: 10 days,18 hours,51 minutes,83%

Waxing Gibbous
83%
Illuminated
10 days in cycle

 Moonrise:

 Moonset:

 Sunrise:

 Sunset:

 Solar Noon:

4:29pm

2:54am

5:38am

8:32pm

1:06pm

0min 4s less daylight tomorrow 

  Solar Radiation 

(Current Solar)
  891 W/m2 (84%)
(Todays High)
 951 W/m2@12:45pm
Feels like: 102.4°F in the sun

Rain

 Rain Today:

 Rain Rate (/hr):

 Rain last hour:

 Rain Yesterday:

 This Month:

 Season Total:

28 Days Since Last Rain Day

0.00 in

0.000 in

0.00 in

0.00 in

0.00 in

42.44 in

Updated Time

Updated: 6/23/18  2:27pm

(Updated  sec ago)

Humidity & Barometer

 Humidity:

 Wetbulb:

 Dew Point:

 Barometer:

29% 

66.5°F 

50.5°F 

29.755 inHg 

 Baro Trend:  Steady 
Northern Calif
Preparedness
Fire 
Level 

    UV Index  

(Current UV)
8.2  Very High
(Todays High) @ 12:55pm
9.2   Very High

National Weather Service Forecast

This
Afternoon
This Afternoon: Sunny
Sunny
Tonight

Tonight: Clear
Clear
Sunday

Sunday: Sunny
Sunny
Sunday
Night
Sunday Night: Clear
Clear
Monday

Monday: Sunny
Sunny
Monday
Night
Monday Night: Clear
Clear
Hi 95 °F Lo 69 °F Hi 93 °F Lo 66 °F Hi 88 °F Lo 65 °F

Foresthill Probe 2 Stats  
Foresthill Probe 2: is located on Thomas Street
at 3000 feet. The main Foresthill Weather site
is located on Melody ln at the 2860 foot elevation

Light Air
91.1°F
32.8°C
Temp Rate:
+1.0°F
3.0 mph
Gusting to
3.0 mph
(Humidity)
26%
Wind from SSE
159°  SSE
Updated: 23/06/18 - 14:22:43
 Todays High: 91.3°F 14:00
 Todays Low: 64.5°F 05:48
 Rain Today: 0.00 in
 Season Total: 44.79 in

Foresthill Wx: Monthly,Yearly, Highs and Lows 

Foresthill  
This Weather Data is coming from the main Foresthill
Weather site located on Melody ln at the 2860 foot
elevation
Not Foresthill Probe 2
Weather Data
Month
  High
Month
  Low
Year
High
Year
Low
Temp 87.4°F
6/13/18
46.3°F
6/1/18
87.4°F
6/13/18
21.9°F
2/23/18
Humidity 86%
6/17/18
16%
6/21/18
100%
1/8/18
15%
2/10/18
Heat Index 84.7°F
6/13/18
48.2°F
6/1/18
84.7°F
6/13/18
27.1°F
2/20/18
Wind Chill 87.4°F
6/13/18
44.3°F
6/10/18
87.4°F
6/13/18
9.2°F
2/23/18
Wind Gust 22 mph
6/15/18
0 mph
6/1/18
43 mph
3/1/18
0 mph
1/1/18
Barometer 30.11 in
6/1/18
29.60 in
6/16/18
30.55 in
1/27/18
29.60 in
6/16/18
ET 0.24 in
6/22/18
0.00 in
6/1/18
0.24 in
6/22/18
0.00 in
1/1/18
Dew Point 59.6°F
6/23/18
27.9°F
6/10/18
59.6°F
6/23/18
7.6°F
2/11/18
Pacific Satellite US Radar Satellite Imagery Sacramento,CA.  (click to enlarge)
NWS Weather Forecast - Summary
Updated: Saturday, June 23, 2018 - 3:00am PDT
Red Flag Warning for Gusty Wind and Low Humidity for the Sacramento and Northern San Joaquin Valleys and Adjacent Foothills Today into Sunday
Current Interstate Highway Conditions for I-80 & US-50

[I 80: IN THE SAN FRANCISCO BAY AREA - SOLANO CO]
the westbound connector to westbound sr 37 /in vallejo/ (SOLANO CO) is closed - due to a traffic collision - motorists are advised to use an alternate route

[I 80: IN THE NORTHERN CALIFORNIA AREA & SIERRA NEVADA]
westbound traffic is reduced to 1 lane at the jct of sr 174 /in colfax/ (PLACER CO) - due to a disabled vehicle

[US 50: IN THE SACRAMENTO VALLEY & THE LAKE TAHOE BASIN]
no traffic restrictions are reported for this area.
NWS Weather Forecast: This Afternoon and Tonight (Updated: Sat, 23-Jun-2018 1:53pm PDT)
This
Afternoon
This Afternoon: Sunny
Sunny

Hi 95 °F
NWS forecast: Sunny, with a high near 95. West northwest wind around 8 mph.
Tonight

Tonight: Clear
Clear

Lo 69 °F
NWS forecast: Clear, with a low around 69. Northeast wind 2 to 9 mph.
YR.NO 10 Day Weather forecast
Last update: 06/23/2018 @ 00:38
Next update: 06/23/2018 @ 13:00
Provided by: 22
      Temperature Precipitation Pressure Wind  
Today
06/23/2018
12:00 18:00 93°F   29.73 inHg Gentle breeze from west 9 mph
  18:00 00:00 91°F   29.68 inHg Light breeze from west-northwest 7 mph
    (Click to enlarge)
meteogram

    Forecast for next 9 days

      Temperature Precip Pressure Wind  
Sunday
06/24/2018
00:00 06:00 64°F   29.71 inHg Light breeze from east-northeast 6 mph
  06:00 12:00 73°F   29.72 inHg Gentle breeze from east-northeast 10 mph
  12:00 18:00 91°F   29.78 inHg Light breeze from southwest 7 mph
  18:00 00:00 86°F   29.77 inHg Light breeze from south-southwest 7 mph
      Temperature Precip Pressure Wind  
Monday
06/25/2018
00:00 06:00 64°F   29.84 inHg Light breeze from east-southeast 5 mph
  06:00 12:00 61°F   29.86 inHg Light air from south-southeast 2 mph
  12:00 18:00 81°F   29.92 inHg Gentle breeze from south-southwest 8 mph
  17:00 23:00 84°F   29.87 inHg Light breeze from southwest 6 mph
  23:00 05:00 66°F   29.89 inHg Light breeze from east-southeast 4 mph
      Temperature Precip Pressure Wind  
Tuesday
06/26/2018
05:00 11:00 59°F   29.86 inHg Light breeze from east 5 mph
  11:00 17:00 84°F   29.88 inHg Light breeze from southwest 7 mph
  17:00 23:00 88°F   29.85 inHg Light breeze from southwest 7 mph
  23:00 05:00 66°F   29.88 inHg Light air from east 2 mph
      Temperature Precip Pressure Wind  
Wednesday
06/27/2018
05:00 11:00 55°F   29.84 inHg Light breeze from east-northeast 5 mph
  11:00 17:00 84°F   29.87 inHg Light breeze from southwest 6 mph
  17:00 23:00 86°F   29.83 inHg Light breeze from south-southwest 7 mph
  23:00 05:00 66°F   29.86 inHg Light air from east 2 mph
      Temperature Precip Pressure Wind  
Thursday
06/28/2018
05:00 11:00 54°F   29.83 inHg Light breeze from east-northeast 4 mph
  11:00 17:00 82°F   29.83 inHg Light breeze from west-southwest 7 mph
  17:00 23:00 86°F   29.77 inHg Light breeze from west-southwest 6 mph
  23:00 05:00 68°F   29.80 inHg Light air from east-northeast 2 mph
      Temperature Precip Pressure Wind  
Friday
06/29/2018
05:00 11:00 57°F   29.76 inHg Light breeze from east-northeast 6 mph
  11:00 17:00 88°F   29.77 inHg Light breeze from west 7 mph
  17:00 23:00 91°F   29.70 inHg Light breeze from west 6 mph
  23:00 05:00 72°F   29.73 inHg Light breeze from east 5 mph
      Temperature Precip Pressure Wind  
Saturday
06/30/2018
05:00 11:00 57°F   29.70 inHg Light breeze from east-northeast 4 mph
  11:00 17:00 82°F   29.73 inHg Light breeze from west-southwest 6 mph
  17:00 23:00 86°F   29.67 inHg Light breeze from west 6 mph
  23:00 05:00 68°F   29.70 inHg Light breeze from east 5 mph
      Temperature Precip Pressure Wind  
Sunday
07/01/2018
05:00 11:00 61°F   29.71 inHg Gentle breeze from east-northeast 8 mph
  11:00 17:00 82°F   29.77 inHg Light breeze from west-southwest 7 mph
  17:00 23:00 86°F   29.73 inHg Gentle breeze from west-southwest 9 mph
  23:00 05:00 64°F   29.83 inHg Light air from south-southeast 3 mph
      Temperature Precip Pressure Wind  
Monday
07/02/2018
05:00 11:00 55°F   29.88 inHg Light breeze from east-southeast 4 mph
  11:00 17:00 75°F   29.95 inHg Light breeze from southwest 6 mph

NOAA Local Storm Report
3 MILES SOUTH OF GONZALES   ( More )
DATE
06/18/2018
TIME
8:15 AM
COUNTY
ASCENSION
STATE
LA
GEOGRAPHIC
30.17N 90.93W
SOURCE
ASOS
THUNDERSTORM WIND GUST MEASURED AT 37.00 MPH
kreg 200/12g37 mph

NOAA Local Storm Report
BATON ROUGE AIRPORT   ( More )
DATE
06/18/2018
TIME
8:46 AM
COUNTY
EAST BATON ROUGE
STATE
LA
GEOGRAPHIC
30.53N 91.15W
SOURCE
ASOS
THUNDERSTORM WIND GUST MEASURED AT 39.00 MPH
kbtr 180/28g39 mph

NOAA Local Storm Report
52 MILES SOUTHWEST OF TAMBOUR BAY BUOY   ( More )
DATE
06/18/2018
TIME
9:15 AM
COUNTY
GMZ570
STATE
XX
GEOGRAPHIC
28.60N 91.20W
SOURCE
AWOS
MARINE THUNDERSTORM WIND MEASURED AT 47.00 MPH
kspr 170/33g41kt

NOAA Local Storm Report
44 MILES SOUTH-SOUTHEAST OF GRAND ISLE   ( More )
DATE
06/18/2018
TIME
9:15 AM
COUNTY
GMZ572
STATE
XX
GEOGRAPHIC
28.65N 89.80W
SOURCE
AWOS
MARINE THUNDERSTORM WIND MEASURED AT 43.00 MPH
kmdj 200/29g37kt
How Close Are We To this Month's Temperature Record ?
Updated Saturday, Jun 23, 2018- 2:20:01 PM

Current Temperature: 86.5°F

June's High: Temperature Record 95.1°F - Set on Sat, Jun 8, 2013 - 3:58:00 PM
We are currently 8.6°F Less than this Month's record High

June's Low: Temperature Record 40.8°F - Set on Tue, Jun 5, 2012 - 5:41:00 AM
We are currently 45.7°F More than this Month's record Low

Weather History For Saturday, June 23, 2018


On this Day - In Weather History ...
Data courtesy of weatherforyou.com
powered by Cumulus v1.9.3 (1059)
Ambient Weather VWS v14.00
Top Contact Website Map Copyright © 2007 - 2018 Foresthillweather.com Never base important decisions on this or any weather information obtained from the Internet